Flag for United Kingdom Weather past 2 weeks in Glasgow, Scotland, United Kingdom

Now
55 °F

Fog.


Feels Like: 55 °F
Forecast: 40 / 62 °F
Wind: 2 mph from West

Location: Glasgow Airport

Current Time: Sep 20, 2014 at 7:36:05 AM

Latest Report: Sep 20, 2014 at 6:50 AM


Visibility: 2 mi

Pressure: 30.04 "Hg

Humidity: 100%

Dew point: 55 °F

Location of GlasgowLocation

Historic Weather in Glasgow — Graph

°F

Glasgow temperature yesterday

Maximum temperature yesterday: 61 °F (at 12:20 AM)
Minimum temperature yesterday: 52 °F (at 11:20 PM)
Average temperature yesterday: 59 °F

Past Weeks' High & Low Weather Summary

 TemperatureHumidityPressure
High72 °F (Sep 10, 3:50 PM)100% (Sep 5, 6:20 AM)30.39 "Hg (Sep 5, 6:20 AM)
Low37 °F (Sep 8, 6:20 AM)50% (Sep 13, 5:20 PM)29.92 "Hg (Sep 18, 4:20 AM)
Average57 °F85%30.12 "Hg
* Reported Sep 5 6:20 AM — Sep 20 6:20 AM, Glasgow, Weather by CustomWeather, © 2014

Note: Actual official high and low records may vary slightly from our data, if they occured in-between our weather recording intervals... More about our weather records

Advertising

Glasgow weather history for previous 24 hours

 ConditionsComfort  
Time TempWeatherWind HumidityBarometerVisibility
6:20 AM
Sep 20
55 °FFog.3 mph100%30.04 "Hg2 mi
5:50 AM55 °FFog.2 mph100%30.01 "Hg2 mi
5:20 AM55 °FFog.2 mph94%30.01 "Hg2 mi
4:50 AM55 °FFog.2 mph94%30.01 "Hg2 mi
4:20 AM55 °FFog.2 mph94%30.01 "Hg2 mi
3:50 AM55 °FFog.No wind94%30.01 "Hg2 mi
3:20 AM54 °FFog.2 mph100%30.01 "Hg2 mi
2:20 AM54 °FFog.No wind100%30.01 "Hg2 mi
1:50 AM54 °FFog.2 mph100%30.01 "Hg2 mi
1:20 AM54 °FFog.No wind100%30.01 "Hg2 mi
12:50 AM52 °FFog.No wind100%30.01 "Hg2 mi
12:20 AM52 °FFog.No wind94%29.98 "Hg1 mi
11:50 PM
Sep 19
52 °FFog.No wind100%29.98 "Hg1 mi
11:20 PM52 °FFog.2 mph100%29.98 "Hg1 mi
10:20 PM54 °FPartly cloudy.No wind100%29.98 "Hg4 mi
9:50 PM55 °FOvercast.2 mph100%29.98 "Hg4 mi
9:20 PM57 °FOvercast.2 mph94%29.98 "Hg4 mi
8:50 PM59 °FOvercast.2 mph88%29.98 "Hg4 mi
8:20 PM59 °FOvercast.2 mph88%29.98 "Hg4 mi
7:50 PM57 °FOvercast.No wind94%29.98 "Hg4 mi
7:20 PM59 °FPartly sunny.No wind88%29.95 "Hg5 mi
6:50 PM61 °FPartly sunny.2 mph83%29.95 "Hg5 mi
6:20 PM61 °FPartly sunny.3 mph83%29.95 "Hg6 mi
5:50 PM61 °FOvercast.3 mph83%29.95 "HgN/A
5:20 PM61 °FOvercast.3 mph83%29.95 "HgN/A
4:50 PM61 °FMostly cloudy.5 mph83%29.95 "HgN/A
4:20 PM61 °FOvercast.5 mph83%29.95 "HgN/A
3:50 PM61 °FMostly cloudy.6 mph83%29.95 "HgN/A
3:20 PM59 °FMostly cloudy.6 mph88%29.95 "HgN/A
2:50 PM59 °FMostly cloudy.7 mph88%29.95 "HgN/A
2:20 PM59 °FMostly cloudy.8 mph88%29.95 "HgN/A
1:50 PM59 °FMostly cloudy.7 mph88%29.95 "HgN/A
1:20 PM59 °FMostly cloudy.7 mph88%29.95 "HgN/A
12:50 PM59 °FMostly cloudy.7 mph88%29.95 "HgN/A
12:20 PM59 °FMostly cloudy.7 mph88%29.95 "HgN/A
11:50 AM59 °FBroken clouds.9 mph88%29.95 "HgN/A
11:20 AM59 °FBroken clouds.8 mph88%29.95 "HgN/A
10:50 AM59 °FBroken clouds.8 mph88%29.95 "HgN/A
10:20 AM59 °FBroken clouds.8 mph94%29.95 "HgN/A
9:50 AM59 °FBroken clouds.10 mph94%29.95 "HgN/A
9:20 AM59 °FBroken clouds.10 mph94%29.95 "HgN/A
8:50 AM59 °FMostly cloudy.12 mph94%29.95 "HgN/A
8:20 AM59 °FMostly cloudy.10 mph94%29.95 "Hg6 mi
7:50 AM59 °FMostly cloudy.10 mph94%29.95 "Hg6 mi
7:20 AM59 °FMostly cloudy.12 mph94%29.95 "Hg5 mi
Weather by CustomWeather, © 2014

See weather overviewHow to use our weather pages